User: anonymous   Login
Location: Copeville
(33.0796°N, 96.4155°W)
Time: 13:42:38
(UTC+00:00)
Language:

Altair 2 - Orbit

View from above orbital plane
View from above orbital plane
View from above satellite
View from above satellite

Ground track
Ground track

The orbit data is extracted from the following two-line orbital elements,

1 01815U 65101B   22268.37690450  .00001561  00000-0  20778-3 0  9992
2 01815  75.8446 233.6991 0005025 315.7713  44.3071 14.80177767866123
Epoch (UTC): 25 September 2022 09:02:44
Eccentricity: 0.0005025
inclination: 75.8446°
perigee height: 625 km
apogee height: 632 km
right ascension of ascending node: 233.6991°
argument of perigee: 315.7713°
revolutions per day: 14.80177767
mean anomaly at epoch: 44.3071°
orbit number at epoch: 86612

The dashed part of the orbit path shows where the satellite is in the earth's shadow,  

DLR